Location: Grust
(42.8833°N, 0.0333°W)
Time: 20:13:08
(UTC+00:00)

Aureole 3 Rocket - Pass Details

Date: 25 October 2020
Orbit: 399 x 1739 km, 82.5° (Epoch: 23 November)

Event Time Altitude Azimuth Distance (km) Brightness Sun altitude
Rises 18:04:54 0° 174° (S) 2,466 6.2 -12.2°
Reaches altitude 10° 18:06:45 10° 169° (S) 1,688 5.3 -12.5°
Maximum altitude 18:10:17 53° 92° (E) 723 3.0 -13.2°
Drops below altitude 10° 18:15:01 10° 16° (NNE) 2,264 5.7 -14.1°
Sets 18:17:50 0° 12° (NNE) 3,420 6.7 -14.6°
